BEIDOU-3 M23

Last updated on Sun Sep 14 2025 00:02:36 GMT+0000 (Coordinated Universal Time)

1 44543U 19061B 25256.33962389 .00000019 00000+0 00000+0 0 9998 2 44543 54.4050 192.0340 0005700 348.6519 35.4617 1.86229321 40641
UTC large
Height (km)
Speed (km/s)
/
Latitude / Longitude
Inclination (degrees)
Orbital Period (minutes)
Azimuth
Elevation
Range (km)
Doppler Factor

Next 0 passes for location: London (51.5072 / 0.1276)

Sorry there are no passes over London.